SUOMI NPP

Last updated on Sat Jul 05 2025 00:02:21 GMT+0000 (Coordinated Universal Time)

1 37849U 11061A 25185.63432305 .00000054 00000+0 46418-4 0 9992 2 37849 98.7579 124.6263 0000574 189.0758 171.0408 14.19543760709126
UTC large
Height (km)
Speed (km/s)
/
Latitude / Longitude
Inclination (degrees)
Orbital Period (minutes)
Azimuth
Elevation
Range (km)
Doppler Factor

Next 0 passes for location: London (51.5072 / 0.1276)

Sorry there are no passes over London.